This is the latest recevied weather packets stored in our database for station/object SR9WXP. If no packets are shown the sender has not sent any weather packets the latest 1 day(s).
| Time | Temp. | Humidity | Pressure | Rain* | Wind** | Luminosity | Snow |
|---|---|---|---|---|---|---|---|
| 1778022025 | 7.78° C | 62% | 848.6 hPa | - | 4.92 m/s, 174° | - | - |
| 1778021887 | 7.78° C | 62% | 848.6 hPa | - | 6.26 m/s, 171° | - | - |
| 1778021769 | 7.78° C | 62% | 848.7 hPa | - | 6.71 m/s, 178° | - | - |
| 1778021649 | 7.78° C | 62% | 848.7 hPa | - | 6.26 m/s, 176° | - | - |
| 1778021587 | 7.78° C | 62% | 848.7 hPa | - | 6.71 m/s, 175° | - | - |
| 1778021528 | 7.78° C | 62% | 848.7 hPa | - | 6.71 m/s, 174° | - | - |
| 1778021408 | 7.78° C | 62% | 848.7 hPa | - | 6.26 m/s, 175° | - | - |
| 1778021284 | 7.78° C | 62% | 848.7 hPa | - | 5.81 m/s, 175° | - | - |
| 1778021165 | 7.78° C | 62% | 848.8 hPa | - | 5.81 m/s, 181° | - | - |
| 1778021045 | 7.78° C | 62% | 848.9 hPa | - | 6.26 m/s, 182° | - | - |
| 1778020984 | 7.78° C | 62% | 848.9 hPa | - | 6.71 m/s, 180° | - | - |
| 1778020925 | 7.78° C | 62% | 848.9 hPa | - | 6.26 m/s, 177° | - | - |
| 1778020806 | 7.78° C | 62% | 848.9 hPa | - | 5.36 m/s, 172° | - | - |
| 1778020681 | 7.78° C | 62% | 848.9 hPa | - | 5.36 m/s, 169° | - | - |
| 1778020564 | 7.78° C | 62% | 848.9 hPa | - | 5.81 m/s, 176° | - | - |
| 1778020443 | 7.78° C | 62% | 848.9 hPa | - | 6.71 m/s, 179° | - | - |
| 1778020381 | 7.78° C | 62% | 848.9 hPa | - | 6.71 m/s, 180° | - | - |
| 1778020202 | 8.33° C | 62% | 849 hPa | - | 5.81 m/s, 178° | - | - |
| 1778020078 | 8.33° C | 62% | 849 hPa | - | 5.36 m/s, 177° | - | - |
| 1778019959 | 8.33° C | 62% | 849 hPa | - | 5.36 m/s, 172° | - | - |
| 1778019840 | 8.33° C | 62% | 849 hPa | - | 5.36 m/s, 172° | - | - |
| 1778019779 | 8.33° C | 62% | 849 hPa | - | 5.36 m/s, 169° | - | - |
| 1778019720 | 8.33° C | 62% | 849 hPa | - | 5.36 m/s, 172° | - | - |
| 1778019599 | 8.33° C | 62% | 849 hPa | - | 6.26 m/s, 174° | - | - |
| 1778019476 | 8.33° C | 62% | 849 hPa | - | 6.26 m/s, 170° | - | - |
* Rain since midnight (hover to see other rain measurements)
** Current wind speed in m/s (hover to see current wind gust speed)